Hundvaag 1 weather for Aug 1995
Month no. 98
Obs.
Da.
Temp. Dew Point Precip. Wind
Speed
Wind gusts Cloud cover Press. Humidity Wind dir. Sunny OPT
01.08.1995 17,8   0,0     10       1  
02.08.1995 17,3   0,0     10       1  
03.08.1995 16,0   0,0     0       1  
04.08.1995 14,3   0,0     9       1  
05.08.1995 16,3   0,0     9       1  
06.08.1995 15,3   0,0     8       1  
07.08.1995 11,9   0,1     10       1  
08.08.1995 9,2   0,0     1       1  
09.08.1995 12,0   0,0     10       1  
10.08.1995 12,9   0,0     9       1  
11.08.1995 10,8   0,0     9       1  
12.08.1995 15,7   0,0     10       1  
13.08.1995 17,0   0,0     1       1  
14.08.1995 14,1   2,0     0       1  
15.08.1995 14,3   0,0     0          
16.08.1995 14,7   0,1     0       1  
17.08.1995 15,1   0,0     0       1  
18.08.1995 13,3   0,0     8       1  
19.08.1995 16,3   0,0     10       1  
20.08.1995 15,3   0,0     10       1  
21.08.1995 10,8   0,0     10       1  
22.08.1995 13,5   0,0     9       1  
23.08.1995 14,0   5,8     0          
24.08.1995 12,6   18,7     9       1  
25.08.1995 15,1   5,3     8          
26.08.1995 13,3   1,9     9       1  
27.08.1995 11,7   0,9     6       1  
28.08.1995 9,6   0,0     9       1  
29.08.1995 8,7   0,0     8       1  
30.08.1995 8,5   0,0     9       1  
31.08.1995 7,2   0,0     10       1  
Avrg/Sum 13,4   34,8     6,8       28